Find Starlink 3625

NORAD ID: 51777 Int'l Des: 2022-017 Owner: SPXS Country: US Constellation: starlink operational
LEOCIRCULAR

当前视图

正在加载3D地球...

About Starlink 3625

Starlink 3625 (NORAD 51777) is a starlink constellation satellite (v1.5) launched Feb 25, 2022 by SPXS of US. It operates in LEO, CIRCULAR orbit with a mass of 297.00 kg.

关于 Starlink 3625

正在加载描述...

即将过境

Passes for default location (London). Set your location on the main map for personalized predictions.

高度历史

Loading altitude history...

两行轨道根数

1 51777U 22017K 26171.46686549 .00000322 00000-0 38308-4 0 9997
2 51777 53.1592 237.5906 0000996 89.0497 271.0609 15.08835649238116
Epoch: Jun 20, 2026 • Age: 35 hours

当前状态

高度 545.1 km
速度 7.60 km/s
星下点 50.83°N, 95.03°E
发射日期 Feb 25, 2022
运行时间 4.3 years
类型 internet

技术详情

分类 Payload
质量 297.00 kg
干质量 275.00 kg
总质量 297.00 kg
长度 0.20 m
直径 2.80 m
跨度 9.00 m
形状 Box + pan
制造商 SPXS
平台类型 Starlink
阶段状态 In Orbit
所有者/国家 SPXS/US

Most Searched